Time,TemperatureF,DewpointF,PressureIn,WindDirection,WindDirectionDegrees,WindSpeedMPH,WindSpeedGustMPH,Humidity,HourlyPrecipIn,Conditions,Clouds,dailyrainin,SolarRadiationWatts/m^2,SoftwareType,DateUTC
2015-07-30 00:02:00,70.1,58.2,29.82,West,278,2.0,2.0,66,0.00,,,0.00,0,Wunderground v.1.15,2015-07-30 05:02:00,
2015-07-30 00:12:00,71.1,57.9,29.82,West,270,4.0,6.0,63,0.00,,,0.00,0,Wunderground v.1.15,2015-07-30 05:12:00,
2015-07-30 00:22:00,72.3,58.1,29.82,WSW,237,5.0,8.0,61,0.00,,,0.00,0,Wunderground v.1.15,2015-07-30 05:22:00,
2015-07-30 00:32:00,72.7,58.0,29.82,West,277,5.0,5.0,60,0.00,,,0.00,0,Wunderground v.1.15,2015-07-30 05:32:00,
2015-07-30 00:52:00,72.7,58.5,29.82,West,268,6.0,7.0,61,0.00,,,0.00,0,Wunderground v.1.15,2015-07-30 05:52:00,
2015-07-30 01:12:00,72.5,57.8,29.82,West,274,7.0,7.0,60,0.00,,,0.00,0,Wunderground v.1.15,2015-07-30 06:12:00,
2015-07-30 01:22:00,72.1,57.9,29.82,West,265,6.0,10.0,61,0.00,,,0.00,0,Wunderground v.1.15,2015-07-30 06:22:00,
2015-07-30 01:32:00,72.1,57.9,29.81,West,261,7.0,7.0,61,0.00,,,0.00,0,Wunderground v.1.15,2015-07-30 06:32:00,
2015-07-30 01:42:00,72.0,57.8,29.81,WSW,247,7.0,7.0,61,0.00,,,0.00,0,Wunderground v.1.15,2015-07-30 06:42:00,
2015-07-30 01:52:00,71.6,57.9,29.81,West,271,6.0,6.0,62,0.00,,,0.00,0,Wunderground v.1.15,2015-07-30 06:52:00,
2015-07-30 02:12:00,71.3,58.1,29.81,West,268,8.0,8.0,63,0.00,,,0.00,0,Wunderground v.1.15,2015-07-30 07:12:00,
2015-07-30 02:22:00,70.9,57.7,29.81,West,260,7.0,7.0,63,0.00,,,0.00,0,Wunderground v.1.15,2015-07-30 07:22:00,
2015-07-30 02:32:00,70.8,58.0,29.81,West,275,6.0,8.0,64,0.00,,,0.00,0,Wunderground v.1.15,2015-07-30 07:32:00,
2015-07-30 02:42:00,70.4,58.1,29.81,WNW,289,7.0,7.0,65,0.00,,,0.00,0,Wunderground v.1.15,2015-07-30 07:42:00,
2015-07-30 02:52:00,70.3,58.0,29.81,West,263,6.0,7.0,65,0.00,,,0.00,0,Wunderground v.1.15,2015-07-30 07:52:00,
2015-07-30 03:02:00,70.3,58.0,29.81,WNW,295,7.0,7.0,65,0.00,,,0.00,0,Wunderground v.1.15,2015-07-30 08:02:00,
2015-07-30 03:12:00,70.1,57.8,29.81,NW,312,7.0,8.0,65,0.00,,,0.00,0,Wunderground v.1.15,2015-07-30 08:12:00,
2015-07-30 03:22:00,69.9,57.6,29.81,WSW,257,7.0,7.0,65,0.00,,,0.00,0,Wunderground v.1.15,2015-07-30 08:22:00,
2015-07-30 03:32:00,69.8,57.9,29.81,WNW,289,7.0,7.0,66,0.00,,,0.00,0,Wunderground v.1.15,2015-07-30 08:32:00,
2015-07-30 03:42:00,69.4,57.5,29.81,WNW,292,6.0,6.0,66,0.00,,,0.00,0,Wunderground v.1.15,2015-07-30 08:42:00,
2015-07-30 03:52:00,69.3,57.9,29.81,WNW,302,6.0,6.0,67,0.00,,,0.00,0,Wunderground v.1.15,2015-07-30 08:52:00,
2015-07-30 04:02:00,69.1,58.1,29.82,WNW,282,6.0,6.0,68,0.00,,,0.00,0,Wunderground v.1.15,2015-07-30 09:02:00,
2015-07-30 04:12:00,68.8,57.8,29.82,WNW,289,5.0,5.0,68,0.00,,,0.00,0,Wunderground v.1.15,2015-07-30 09:12:00,
2015-07-30 04:22:00,68.6,57.6,29.82,West,274,6.0,6.0,68,0.00,,,0.00,0,Wunderground v.1.15,2015-07-30 09:22:00,
2015-07-30 04:32:00,68.6,57.2,29.82,West,277,7.0,7.0,67,0.00,,,0.00,0,Wunderground v.1.15,2015-07-30 09:32:00,
2015-07-30 04:42:00,68.6,57.2,29.82,West,272,6.0,6.0,67,0.00,,,0.00,0,Wunderground v.1.15,2015-07-30 09:42:00,
2015-07-30 04:52:00,68.4,57.4,29.82,WSW,251,6.0,8.0,68,0.00,,,0.00,0,Wunderground v.1.15,2015-07-30 09:52:00,
2015-07-30 05:02:00,68.3,57.7,29.82,WNW,296,8.0,8.0,69,0.00,,,0.00,0,Wunderground v.1.15,2015-07-30 10:02:00,
2015-07-30 05:22:00,67.8,57.3,29.82,West,265,6.0,8.0,69,0.00,,,0.00,0,Wunderground v.1.15,2015-07-30 10:22:00,
2015-07-30 05:32:00,67.9,56.9,29.82,WNW,291,8.0,8.0,68,0.00,,,0.00,0,Wunderground v.1.15,2015-07-30 10:32:00,
2015-07-30 05:42:00,67.9,57.4,29.83,WNW,287,7.0,7.0,69,0.00,,,0.00,5,Wunderground v.1.15,2015-07-30 10:42:00,
2015-07-30 05:52:00,68.1,57.5,29.83,West,278,7.0,7.0,69,0.00,,,0.00,14,Wunderground v.1.15,2015-07-30 10:52:00,
2015-07-30 06:02:00,68.1,57.5,29.83,WNW,285,7.0,7.0,69,0.00,,,0.00,25,Wunderground v.1.15,2015-07-30 11:02:00,
2015-07-30 06:12:00,67.9,57.4,29.83,WSW,247,7.0,10.0,69,0.00,,,0.00,49,Wunderground v.1.15,2015-07-30 11:12:00,
2015-07-30 06:22:00,68.1,57.5,29.83,WSW,256,7.0,9.0,69,0.00,,,0.00,81,Wunderground v.1.15,2015-07-30 11:22:00,
2015-07-30 06:32:00,68.3,57.7,29.84,West,265,7.0,13.0,69,0.00,,,0.00,107,Wunderground v.1.15,2015-07-30 11:32:00,
2015-07-30 06:42:00,68.6,57.6,29.84,West,264,9.0,9.0,68,0.00,,,0.00,132,Wunderground v.1.15,2015-07-30 11:42:00,
2015-07-30 06:52:00,68.9,57.9,29.84,West,280,8.0,10.0,68,0.00,,,0.00,157,Wunderground v.1.15,2015-07-30 11:52:00,
2015-07-30 07:02:00,69.1,57.7,29.84,West,274,8.0,10.0,67,0.00,,,0.00,183,Wunderground v.1.15,2015-07-30 12:02:00,
2015-07-30 07:12:00,69.4,58.0,29.85,WNW,282,8.0,10.0,67,0.00,,,0.00,209,Wunderground v.1.15,2015-07-30 12:12:00,
2015-07-30 07:22:00,69.9,57.6,29.85,NW,304,8.0,9.0,65,0.00,,,0.00,239,Wunderground v.1.15,2015-07-30 12:22:00,
2015-07-30 07:32:00,70.1,58.2,29.85,West,274,7.0,7.0,66,0.00,,,0.00,266,Wunderground v.1.15,2015-07-30 12:32:00,
2015-07-30 07:52:00,70.1,58.2,29.85,West,275,8.0,11.0,66,0.00,,,0.00,324,Wunderground v.1.15,2015-07-30 12:52:00,
2015-07-30 08:02:00,70.4,58.5,29.85,West,264,8.0,8.0,66,0.00,,,0.00,350,Wunderground v.1.15,2015-07-30 13:02:00,
2015-07-30 08:12:00,70.8,58.4,29.85,NW,309,8.0,8.0,65,0.00,,,0.00,378,Wunderground v.1.15,2015-07-30 13:12:00,
2015-07-30 08:22:00,71.3,58.5,29.85,West,270,7.0,8.0,64,0.00,,,0.00,406,Wunderground v.1.15,2015-07-30 13:22:00,
2015-07-30 08:32:00,71.8,58.5,29.85,West,280,9.0,9.0,63,0.00,,,0.00,433,Wunderground v.1.15,2015-07-30 13:32:00,
2015-07-30 08:42:00,72.3,58.1,29.85,WNW,288,9.0,9.0,61,0.00,,,0.00,459,Wunderground v.1.15,2015-07-30 13:42:00,
2015-07-30 08:52:00,72.8,58.6,29.85,WSW,256,8.0,14.0,61,0.00,,,0.00,487,Wunderground v.1.15,2015-07-30 13:52:00,
2015-07-30 09:02:00,73.5,58.8,29.85,West,272,9.0,9.0,60,0.00,,,0.00,512,Wunderground v.1.15,2015-07-30 14:02:00,
2015-07-30 09:12:00,74.0,58.3,29.85,NW,315,8.0,9.0,58,0.00,,,0.00,537,Wunderground v.1.15,2015-07-30 14:12:00,
2015-07-30 09:22:00,74.6,58.4,29.85,SW,233,8.0,8.0,57,0.00,,,0.00,560,Wunderground v.1.15,2015-07-30 14:22:00,
2015-07-30 09:32:00,75.1,59.3,29.85,WNW,288,8.0,11.0,58,0.00,,,0.00,586,Wunderground v.1.15,2015-07-30 14:32:00,
2015-07-30 09:42:00,75.3,58.5,29.85,West,270,9.0,9.0,56,0.00,,,0.00,607,Wunderground v.1.15,2015-07-30 14:42:00,
2015-07-30 09:52:00,75.4,57.6,29.85,WSW,254,9.0,15.0,54,0.00,,,0.00,630,Wunderground v.1.15,2015-07-30 14:52:00,
2015-07-30 10:02:00,76.3,57.4,29.85,NW,315,9.0,9.0,52,0.00,,,0.00,651,Wunderground v.1.15,2015-07-30 15:02:00,
2015-07-30 10:12:00,76.1,57.7,29.85,WNW,288,11.0,11.0,53,0.00,,,0.00,672,Wunderground v.1.15,2015-07-30 15:12:00,
2015-07-30 10:22:00,76.5,57.6,29.85,NNW,347,11.0,11.0,52,0.00,,,0.00,688,Wunderground v.1.15,2015-07-30 15:22:00,
2015-07-30 10:32:00,77.2,57.7,29.86,NNW,340,9.0,12.0,51,0.00,,,0.00,707,Wunderground v.1.15,2015-07-30 15:32:00,
2015-07-30 10:42:00,77.6,58.0,29.86,NW,312,10.0,10.0,51,0.00,,,0.00,723,Wunderground v.1.15,2015-07-30 15:42:00,
2015-07-30 10:52:00,77.9,57.2,29.86,NW,318,9.0,9.0,49,0.00,,,0.00,739,Wunderground v.1.15,2015-07-30 15:52:00,
2015-07-30 11:02:00,78.1,59.0,29.85,NW,306,9.0,9.0,52,0.00,,,0.00,753,Wunderground v.1.15,2015-07-30 16:02:00,
2015-07-30 11:22:00,78.6,58.4,29.86,WNW,289,10.0,13.0,50,0.00,,,0.00,783,Wunderground v.1.15,2015-07-30 16:22:00,
2015-07-30 11:32:00,79.0,58.2,29.86,NW,312,10.0,10.0,49,0.00,,,0.00,794,Wunderground v.1.15,2015-07-30 16:32:00,
2015-07-30 11:42:00,79.2,57.8,29.86,West,281,11.0,13.0,48,0.00,,,0.00,804,Wunderground v.1.15,2015-07-30 16:42:00,
2015-07-30 11:52:00,80.3,56.4,29.86,West,267,8.0,8.0,44,0.00,,,0.00,813,Wunderground v.1.15,2015-07-30 16:52:00,
2015-07-30 12:02:00,80.9,57.6,29.86,WSW,248,9.0,9.0,45,0.00,,,0.00,820,Wunderground v.1.15,2015-07-30 17:02:00,
2015-07-30 12:12:00,80.9,56.3,29.85,NW,313,10.0,12.0,43,0.00,,,0.00,825,Wunderground v.1.15,2015-07-30 17:12:00,
2015-07-30 12:22:00,80.7,55.5,29.85,NW,309,11.0,14.0,42,0.00,,,0.00,832,Wunderground v.1.15,2015-07-30 17:22:00,
2015-07-30 12:32:00,80.9,55.7,29.85,NW,305,11.0,11.0,42,0.00,,,0.00,832,Wunderground v.1.15,2015-07-30 17:32:00,
2015-07-30 12:42:00,81.6,55.6,29.85,WSW,253,10.0,12.0,41,0.00,,,0.00,836,Wunderground v.1.15,2015-07-30 17:42:00,
2015-07-30 12:52:00,81.6,55.6,29.85,West,275,10.0,10.0,41,0.00,,,0.00,839,Wunderground v.1.15,2015-07-30 17:52:00,
2015-07-30 13:02:00,82.2,55.5,29.85,WSW,243,9.0,9.0,40,0.00,,,0.00,838,Wunderground v.1.15,2015-07-30 18:02:00,
2015-07-30 13:12:00,82.4,57.0,29.85,NNW,346,11.0,13.0,42,0.00,,,0.00,838,Wunderground v.1.15,2015-07-30 18:12:00,
2015-07-30 13:22:00,83.0,56.9,29.85,WNW,295,9.0,9.0,41,0.00,,,0.00,845,Wunderground v.1.15,2015-07-30 18:22:00,
2015-07-30 13:32:00,82.6,56.5,29.85,WNW,292,11.0,12.0,41,0.00,,,0.00,841,Wunderground v.1.15,2015-07-30 18:32:00,
2015-07-30 13:42:00,83.0,55.5,29.85,NNW,330,10.0,10.0,39,0.00,,,0.00,834,Wunderground v.1.15,2015-07-30 18:42:00,
2015-07-30 13:52:00,83.2,56.4,29.85,NW,316,10.0,10.0,40,0.00,,,0.00,827,Wunderground v.1.15,2015-07-30 18:52:00,
2015-07-30 14:02:00,84.1,55.7,29.85,WSW,258,9.0,9.0,38,0.00,,,0.00,811,Wunderground v.1.15,2015-07-30 19:02:00,
2015-07-30 14:12:00,83.8,55.5,29.85,WNW,287,11.0,18.0,38,0.00,,,0.00,799,Wunderground v.1.15,2015-07-30 19:12:00,
2015-07-30 14:22:00,83.6,54.6,29.85,NNW,335,10.0,10.0,37,0.00,,,0.00,790,Wunderground v.1.15,2015-07-30 19:22:00,
2015-07-30 14:32:00,84.1,54.3,29.85,WNW,298,9.0,9.0,36,0.00,,,0.00,779,Wunderground v.1.15,2015-07-30 19:32:00,
2015-07-30 14:42:00,83.8,54.7,29.85,WNW,291,10.0,12.0,37,0.00,,,0.00,767,Wunderground v.1.15,2015-07-30 19:42:00,
2015-07-30 14:52:00,84.1,55.0,29.85,WSW,248,9.0,11.0,37,0.00,,,0.00,748,Wunderground v.1.15,2015-07-30 19:52:00,
2015-07-30 15:02:00,84.0,54.2,29.85,WNW,299,11.0,13.0,36,0.00,,,0.00,734,Wunderground v.1.15,2015-07-30 20:02:00,
2015-07-30 15:12:00,84.0,53.4,29.85,West,278,11.0,14.0,35,0.00,,,0.00,718,Wunderground v.1.15,2015-07-30 20:12:00,
2015-07-30 15:22:00,84.3,54.4,29.85,WNW,302,9.0,9.0,36,0.00,,,0.00,702,Wunderground v.1.15,2015-07-30 20:22:00,
2015-07-30 15:32:00,84.9,54.2,29.85,WSW,258,8.0,9.0,35,0.00,,,0.00,684,Wunderground v.1.15,2015-07-30 20:32:00,
2015-07-30 15:42:00,84.3,54.4,29.85,NNW,329,8.0,10.0,36,0.00,,,0.00,665,Wunderground v.1.15,2015-07-30 20:42:00,
2015-07-30 15:52:00,84.3,54.4,29.85,West,280,10.0,13.0,36,0.00,,,0.00,648,Wunderground v.1.15,2015-07-30 20:52:00,
2015-07-30 16:02:00,84.1,53.5,29.85,WNW,285,10.0,10.0,35,0.00,,,0.00,623,Wunderground v.1.15,2015-07-30 21:02:00,
2015-07-30 16:12:00,84.3,53.7,29.84,NW,312,9.0,9.0,35,0.00,,,0.00,596,Wunderground v.1.15,2015-07-30 21:12:00,
2015-07-30 16:22:00,84.5,54.6,29.84,West,277,8.0,8.0,36,0.00,,,0.00,577,Wunderground v.1.15,2015-07-30 21:22:00,
2015-07-30 16:32:00,84.1,53.5,29.84,WNW,282,9.0,9.0,35,0.00,,,0.00,552,Wunderground v.1.15,2015-07-30 21:32:00,
2015-07-30 16:42:00,84.5,54.6,29.84,NW,315,7.0,7.0,36,0.00,,,0.00,535,Wunderground v.1.15,2015-07-30 21:42:00,
2015-07-30 16:52:00,84.1,54.3,29.84,WNW,288,9.0,9.0,36,0.00,,,0.00,510,Wunderground v.1.15,2015-07-30 21:52:00,
2015-07-30 17:02:00,84.5,54.6,29.84,West,274,8.0,8.0,36,0.00,,,0.00,484,Wunderground v.1.15,2015-07-30 22:02:00,
2015-07-30 17:12:00,84.5,54.6,29.84,WNW,301,7.0,7.0,36,0.00,,,0.00,454,Wunderground v.1.15,2015-07-30 22:12:00,
2015-07-30 17:22:00,84.0,53.4,29.84,NW,316,9.0,9.0,35,0.00,,,0.00,443,Wunderground v.1.15,2015-07-30 22:22:00,
2015-07-30 17:32:00,84.1,55.0,29.84,NW,308,8.0,10.0,37,0.00,,,0.00,415,Wunderground v.1.15,2015-07-30 22:32:00,
2015-07-30 17:42:00,84.5,55.4,29.84,NW,316,6.0,6.0,37,0.00,,,0.00,412,Wunderground v.1.15,2015-07-30 22:42:00,
2015-07-30 17:52:00,82.6,56.5,29.84,North,6,7.0,7.0,41,0.00,,,0.00,135,Wunderground v.1.15,2015-07-30 22:52:00,
2015-07-30 18:02:00,81.8,55.8,29.85,North,0,4.0,4.0,41,0.00,,,0.00,382,Wunderground v.1.15,2015-07-30 23:02:00,
2015-07-30 18:12:00,81.2,57.2,29.85,North,10,4.0,4.0,44,0.00,,,0.00,79,Wunderground v.1.15,2015-07-30 23:12:00,
2015-07-30 18:22:00,80.1,57.5,29.85,North,8,2.0,2.0,46,0.00,,,0.00,76,Wunderground v.1.15,2015-07-30 23:22:00,
2015-07-30 18:32:00,79.6,57.6,29.85,North,8,0.0,0.0,47,0.00,,,0.00,81,Wunderground v.1.15,2015-07-30 23:32:00,
2015-07-30 18:42:00,79.0,57.6,29.84,North,8,0.0,0.0,48,0.00,,,0.00,44,Wunderground v.1.15,2015-07-30 23:42:00,
2015-07-30 18:52:00,78.6,57.3,29.84,NNW,333,1.0,1.0,48,0.00,,,0.00,28,Wunderground v.1.15,2015-07-30 23:52:00,
2015-07-30 19:02:00,76.8,61.9,29.85,NNW,328,6.0,6.0,60,0.00,,,0.01,37,Wunderground v.1.15,2015-07-31 00:02:00,
2015-07-30 19:12:00,73.9,61.4,29.87,North,350,7.0,11.0,65,0.41,,,0.03,62,Wunderground v.1.15,2015-07-31 00:12:00,
2015-07-30 19:22:00,70.9,60.6,29.87,NNW,346,5.0,7.0,70,0.06,,,0.04,121,Wunderground v.1.15,2015-07-31 00:22:00,
2015-07-30 19:32:00,69.8,62.6,29.88,North,7,8.0,8.0,78,0.00,,,0.04,90,Wunderground v.1.15,2015-07-31 00:32:00,
2015-07-30 19:42:00,69.1,63.0,29.87,NNE,20,5.0,5.0,81,0.00,,,0.04,51,Wunderground v.1.15,2015-07-31 00:42:00,
2015-07-30 19:52:00,69.1,63.4,29.87,NNE,20,1.0,1.0,82,0.00,,,0.04,19,Wunderground v.1.15,2015-07-31 00:52:00,
2015-07-30 20:02:00,68.8,63.1,29.87,NNE,20,0.0,0.0,82,0.00,,,0.04,9,Wunderground v.1.15,2015-07-31 01:02:00,
2015-07-30 20:12:00,67.9,63.2,29.87,NNE,20,0.0,0.0,85,0.00,,,0.04,5,Wunderground v.1.15,2015-07-31 01:12:00,
2015-07-30 20:22:00,66.9,63.6,29.87,NNE,20,0.0,0.0,89,0.00,,,0.04,0,Wunderground v.1.15,2015-07-31 01:22:00,
2015-07-30 20:32:00,66.0,63.6,29.87,NNE,20,0.0,0.0,92,0.00,,,0.04,0,Wunderground v.1.15,2015-07-31 01:32:00,
2015-07-30 20:42:00,65.5,63.1,29.87,NNE,20,0.0,0.0,92,0.00,,,0.04,0,Wunderground v.1.15,2015-07-31 01:42:00,